Location: Newark
(43.0000°N, 1.6781°W)
Time: 19:45:34
(UTC+00:00)

Transit 2A Rocket - Pass Details

Date: 28 April 2021
Orbit: 594 x 908 km, 66.7° (Epoch: 05 May)

Event Time Altitude Azimuth Distance (km) Brightness Sun altitude
Rises 22:16:11 0° 326° (NW) 2,913 9.3 -27.4°
Reaches altitude 10° 22:18:23 10° 324° (NW) 2,034 8.2 -27.6°
Enters shadow 22:22:06 55° 298° (WNW) 799 5.2 -28.0°
